RAM982 GMMN-LPPT

Flight info

Callsign RAM982
Flight time 0h 55m
Altitude 34000
Route LAKAM UR722 AMSEL DCT VATZI
Aircraft B738/M-SDE2E3FGHIRWXY/LB1

Departure

Time 2026-05-07 16:48
Airport Mohammed V International Airport (GMMN)

Arrival

Time 2026-05-07 17:44
Airport Lisbon Humberto Delgado Airport (LPPT)
Time Latitude Longitude Altitude Speed Heading
2026-05-07 16:02 33.36803 -7.58072 652 ft 0 kts 73°
2026-05-07 16:30 33.36797 -7.58095 650 ft 4 kts 80°
2026-05-07 16:30 33.36796 -7.58127 650 ft 4 kts 103°
2026-05-07 16:30 33.36806 -7.58151 653 ft 3 kts 159°
2026-05-07 16:30 33.36810 -7.58152 653 ft 0 kts 163°
2026-05-07 16:36 33.36807 -7.58151 653 ft 2 kts 162°
2026-05-07 16:36 33.36786 -7.58143 650 ft 4 kts 162°
2026-05-07 16:36 33.36744 -7.58128 650 ft 11 kts 164°
2026-05-07 16:36 33.36651 -7.58096 653 ft 15 kts 163°
2026-05-07 16:37 33.36550 -7.58081 651 ft 15 kts 197°
2026-05-07 16:37 33.36443 -7.58131 653 ft 17 kts 188°
2026-05-07 16:37 33.36326 -7.58110 652 ft 17 kts 171°
2026-05-07 16:37 33.36252 -7.58195 652 ft 16 kts 253°
2026-05-07 16:38 33.36156 -7.58224 652 ft 16 kts 163°
2026-05-07 16:38 33.36044 -7.58186 653 ft 17 kts 164°
2026-05-07 16:38 33.35933 -7.58148 653 ft 16 kts 164°
2026-05-07 16:38 33.35826 -7.58112 656 ft 16 kts 164°
2026-05-07 16:39 33.35722 -7.58077 654 ft 15 kts 164°
2026-05-07 16:39 33.35623 -7.58043 655 ft 14 kts 164°
2026-05-07 16:39 33.35529 -7.58010 657 ft 14 kts 165°
2026-05-07 16:39 33.35438 -7.57979 655 ft 13 kts 163°
2026-05-07 16:40 33.35351 -7.57949 661 ft 13 kts 169°
2026-05-07 16:40 33.35323 -7.57946 658 ft 0 kts 180°
2026-05-07 16:40 33.35304 -7.57950 660 ft 7 kts 200°
2026-05-07 16:41 33.35268 -7.57979 656 ft 0 kts 229°
2026-05-07 16:42 33.35268 -7.57980 656 ft 1 kts 231°
2026-05-07 16:43 33.35254 -7.58010 659 ft 11 kts 244°
2026-05-07 16:43 33.35235 -7.58079 656 ft 0 kts 255°
2026-05-07 16:45 33.35235 -7.58081 656 ft 2 kts 254°
2026-05-07 16:45 33.35217 -7.58151 656 ft 15 kts 253°
2026-05-07 16:45 33.35204 -7.58250 657 ft 4 kts 308°
2026-05-07 16:45 33.35223 -7.58262 658 ft 0 kts 343°
2026-05-07 16:47 33.35313 -7.58294 658 ft 44 kts 342°
2026-05-07 16:47 33.35861 -7.58481 651 ft 118 kts 345°
2026-05-07 16:48 33.36832 -7.58798 834 ft 162 kts 346°
2026-05-07 16:48 33.37955 -7.59172 1653 ft 170 kts 345°
2026-05-07 16:48 33.39187 -7.59588 2282 ft 191 kts 343°
2026-05-07 16:48 33.40443 -7.60188 2716 ft 209 kts 334°
2026-05-07 16:49 33.41745 -7.61147 3031 ft 226 kts 326°
2026-05-07 16:49 33.42983 -7.62364 3632 ft 235 kts 319°
2026-05-07 16:49 33.44125 -7.63788 4369 ft 241 kts 310°
2026-05-07 16:49 33.45154 -7.65434 4988 ft 250 kts 303°
2026-05-07 16:50 33.46109 -7.67154 5858 ft 247 kts 301°
2026-05-07 16:50 33.47069 -7.68896 6502 ft 256 kts 304°
2026-05-07 16:50 33.48503 -7.70282 6816 ft 280 kts 339°
2026-05-07 16:50 33.50469 -7.70604 7467 ft 287 kts 357°
2026-05-07 16:51 33.52466 -7.70653 8147 ft 293 kts 358°
2026-05-07 16:51 33.54527 -7.70690 8840 ft 299 kts 358°
2026-05-07 16:51 33.56625 -7.70740 9518 ft 305 kts 357°
2026-05-07 16:51 33.58752 -7.70806 10228 ft 308 kts 356°
2026-05-07 16:52 33.60966 -7.70891 10464 ft 329 kts 356°
2026-05-07 16:52 33.63331 -7.70994 10643 ft 351 kts 356°
2026-05-07 16:52 33.65827 -7.71109 10998 ft 364 kts 356°
2026-05-07 16:52 33.68377 -7.71231 11583 ft 369 kts 355°
2026-05-07 16:53 33.70962 -7.71358 12259 ft 372 kts 355°
2026-05-07 16:53 33.73559 -7.71487 12948 ft 375 kts 355°
2026-05-07 16:53 33.76177 -7.71620 13572 ft 379 kts 355°
2026-05-07 16:53 33.78824 -7.71755 14116 ft 383 kts 354°
2026-05-07 16:54 33.81469 -7.71890 14666 ft 386 kts 354°
2026-05-07 16:54 33.84167 -7.72026 15257 ft 389 kts 354°
2026-05-07 16:54 33.86882 -7.72160 15813 ft 392 kts 353°
2026-05-07 16:54 33.89620 -7.72296 16364 ft 396 kts 353°
2026-05-07 16:55 33.92390 -7.72437 16909 ft 399 kts 353°
2026-05-07 16:55 33.95181 -7.72580 17458 ft 403 kts 353°
2026-05-07 16:55 33.97998 -7.72726 18026 ft 406 kts 352°
2026-05-07 16:55 34.00832 -7.72873 18528 ft 409 kts 352°
2026-05-07 16:56 34.03682 -7.73021 19000 ft 412 kts 352°
2026-05-07 16:56 34.06556 -7.73170 19460 ft 415 kts 352°
2026-05-07 16:56 34.12373 -7.73472 19928 ft 420 kts 352°
2026-05-07 16:57 34.15261 -7.73621 19943 ft 420 kts 352°
2026-05-07 16:57 34.18204 -7.73775 19964 ft 426 kts 352°
2026-05-07 16:57 34.21182 -7.73951 20284 ft 430 kts 352°
2026-05-07 16:57 34.24169 -7.74156 20895 ft 429 kts 351°
2026-05-07 16:58 34.27144 -7.74370 21436 ft 429 kts 351°
2026-05-07 16:58 34.30136 -7.74588 21829 ft 433 kts 351°
2026-05-07 16:58 34.33165 -7.74809 22183 ft 438 kts 351°
2026-05-07 16:58 34.36222 -7.75028 22588 ft 441 kts 351°
2026-05-07 16:59 34.39290 -7.75245 23042 ft 443 kts 351°
2026-05-07 16:59 34.42375 -7.75462 23457 ft 445 kts 351°
2026-05-07 16:59 34.45484 -7.75680 23802 ft 448 kts 351°
2026-05-07 16:59 34.48603 -7.75898 24169 ft 450 kts 351°
2026-05-07 17:00 34.51731 -7.76117 24580 ft 450 kts 351°
2026-05-07 17:00 34.54866 -7.76337 24938 ft 452 kts 351°
2026-05-07 17:00 34.57976 -7.76556 25294 ft 453 kts 351°
2026-05-07 17:00 34.61129 -7.76778 25652 ft 455 kts 351°
2026-05-07 17:01 34.64292 -7.77001 26005 ft 456 kts 351°
2026-05-07 17:01 34.67467 -7.77225 26350 ft 457 kts 351°
2026-05-07 17:01 34.70646 -7.77449 26685 ft 459 kts 351°
2026-05-07 17:01 34.73838 -7.77675 27008 ft 460 kts 351°
2026-05-07 17:02 34.77043 -7.77915 27303 ft 463 kts 350°
2026-05-07 17:02 34.80267 -7.78180 27519 ft 466 kts 350°
2026-05-07 17:02 34.83514 -7.78456 27819 ft 468 kts 350°
2026-05-07 17:02 34.86761 -7.78732 28145 ft 468 kts 350°
2026-05-07 17:03 34.90015 -7.79007 28456 ft 469 kts 350°
2026-05-07 17:03 34.93280 -7.79282 28734 ft 471 kts 350°
2026-05-07 17:03 34.96560 -7.79556 29000 ft 473 kts 350°
2026-05-07 17:03 34.99852 -7.79830 29282 ft 475 kts 350°
2026-05-07 17:04 35.03154 -7.80105 29522 ft 477 kts 350°
2026-05-07 17:04 35.06477 -7.80381 29756 ft 479 kts 350°
2026-05-07 17:04 35.09770 -7.80655 30018 ft 480 kts 350°
2026-05-07 17:04 35.13098 -7.80932 30325 ft 479 kts 350°
2026-05-07 17:05 35.16415 -7.81206 30696 ft 476 kts 350°
2026-05-07 17:05 35.19715 -7.81480 31034 ft 474 kts 350°
2026-05-07 17:05 35.23009 -7.81755 31325 ft 473 kts 350°
2026-05-07 17:05 35.26290 -7.82030 31620 ft 473 kts 349°
2026-05-07 17:06 35.29568 -7.82305 31960 ft 471 kts 349°
2026-05-07 17:06 35.32827 -7.82578 32278 ft 469 kts 349°
2026-05-07 17:06 35.36082 -7.82852 32538 ft 469 kts 349°
2026-05-07 17:06 35.39336 -7.83126 32787 ft 468 kts 349°
2026-05-07 17:07 35.42587 -7.83401 33066 ft 467 kts 348°
2026-05-07 17:07 35.45831 -7.83686 33337 ft 466 kts 348°
2026-05-07 17:07 35.49072 -7.83978 33595 ft 466 kts 348°
2026-05-07 17:07 35.51213 -7.84173 33813 ft 464 kts 348°
2026-05-07 17:08 35.54432 -7.84465 33958 ft 465 kts 348°
2026-05-07 17:08 35.57668 -7.84761 33956 ft 466 kts 348°
2026-05-07 17:08 35.64118 -7.85344 33938 ft 461 kts 348°
2026-05-07 17:09 35.70455 -7.85914 33946 ft 458 kts 348°
2026-05-07 17:09 35.76778 -7.86486 33938 ft 452 kts 348°
2026-05-07 17:10 35.83032 -7.87151 33937 ft 444 kts 341°
2026-05-07 17:10 35.85971 -7.88113 33946 ft 431 kts 330°
2026-05-07 17:10 35.88697 -7.89574 33952 ft 426 kts 327°
2026-05-07 17:11 35.94086 -7.92625 33946 ft 427 kts 327°
2026-05-07 17:11 35.99507 -7.95671 33973 ft 428 kts 327°
2026-05-07 17:12 36.04966 -7.98712 33950 ft 437 kts 327°
2026-05-07 17:12 36.10570 -8.01822 33954 ft 444 kts 327°
2026-05-07 17:13 36.16226 -8.04954 33942 ft 446 kts 327°
2026-05-07 17:13 36.21896 -8.08098 33938 ft 447 kts 327°
2026-05-07 17:14 36.27573 -8.11253 33945 ft 447 kts 327°
2026-05-07 17:14 36.33242 -8.14411 33936 ft 446 kts 327°
2026-05-07 17:15 36.38886 -8.17560 33928 ft 444 kts 327°
2026-05-07 17:15 36.44467 -8.20679 33934 ft 442 kts 327°
2026-05-07 17:16 36.50068 -8.23816 33941 ft 441 kts 327°
2026-05-07 17:16 36.55652 -8.26948 33935 ft 439 kts 327°
2026-05-07 17:17 36.61221 -8.30077 33931 ft 438 kts 327°
2026-05-07 17:17 36.66783 -8.33206 33925 ft 437 kts 327°
2026-05-07 17:18 36.72335 -8.36336 33939 ft 438 kts 327°
2026-05-07 17:18 36.77893 -8.39474 33935 ft 439 kts 327°
2026-05-07 17:19 36.83474 -8.42631 33937 ft 441 kts 327°
2026-05-07 17:19 36.89056 -8.45794 33603 ft 444 kts 327°
2026-05-07 17:20 36.91894 -8.47400 33334 ft 440 kts 327°
2026-05-07 17:20 36.94630 -8.48947 33094 ft 434 kts 327°
2026-05-07 17:20 36.97373 -8.50500 32833 ft 431 kts 327°
2026-05-07 17:20 37.00093 -8.52045 32576 ft 429 kts 327°
2026-05-07 17:21 37.02807 -8.53590 32319 ft 427 kts 327°
2026-05-07 17:21 37.05510 -8.55130 32064 ft 426 kts 328°
2026-05-07 17:21 37.08204 -8.56666 31813 ft 425 kts 328°
2026-05-07 17:21 37.10891 -8.58199 31564 ft 424 kts 328°
2026-05-07 17:22 37.13568 -8.59727 31304 ft 422 kts 328°
2026-05-07 17:22 37.16233 -8.61247 30935 ft 418 kts 328°
2026-05-07 17:22 37.18868 -8.62751 30566 ft 414 kts 328°
2026-05-07 17:22 37.21481 -8.64245 30175 ft 412 kts 329°
2026-05-07 17:23 37.24084 -8.65736 29739 ft 409 kts 329°
2026-05-07 17:23 37.26670 -8.67217 29291 ft 406 kts 329°
2026-05-07 17:23 37.29197 -8.68665 28878 ft 403 kts 329°
2026-05-07 17:23 37.31741 -8.70124 28459 ft 400 kts 329°
2026-05-07 17:24 37.34317 -8.71470 27900 ft 405 kts 335°
2026-05-07 17:24 37.37015 -8.72573 27247 ft 410 kts 337°
2026-05-07 17:24 37.39760 -8.73598 26735 ft 411 kts 338°
2026-05-07 17:24 37.42497 -8.74597 26362 ft 407 kts 338°
2026-05-07 17:25 37.45198 -8.75589 26006 ft 401 kts 338°
2026-05-07 17:25 37.47859 -8.76583 25463 ft 398 kts 338°
2026-05-07 17:25 37.50506 -8.77589 24834 ft 397 kts 338°
2026-05-07 17:25 37.53144 -8.78604 24228 ft 395 kts 338°
2026-05-07 17:26 37.55765 -8.79619 23645 ft 393 kts 338°
2026-05-07 17:26 37.58383 -8.80638 22854 ft 394 kts 338°
2026-05-07 17:26 37.61005 -8.81659 22074 ft 394 kts 338°
2026-05-07 17:26 37.63625 -8.82681 21325 ft 394 kts 338°
2026-05-07 17:27 37.66238 -8.83701 20579 ft 393 kts 338°
2026-05-07 17:27 37.68853 -8.84721 19854 ft 392 kts 339°
2026-05-07 17:27 37.71427 -8.85726 19147 ft 391 kts 339°
2026-05-07 17:27 37.74025 -8.86741 18428 ft 390 kts 339°
2026-05-07 17:28 37.76609 -8.87751 17637 ft 389 kts 339°
2026-05-07 17:28 37.79199 -8.88764 16801 ft 388 kts 340°
2026-05-07 17:28 37.81772 -8.89772 15990 ft 386 kts 340°
2026-05-07 17:28 37.84338 -8.90778 15200 ft 384 kts 340°
2026-05-07 17:29 37.86888 -8.91778 14430 ft 382 kts 341°
2026-05-07 17:29 37.89422 -8.92772 13667 ft 381 kts 341°
2026-05-07 17:29 37.91943 -8.93762 12829 ft 378 kts 341°
2026-05-07 17:29 37.94454 -8.94748 12008 ft 376 kts 341°
2026-05-07 17:30 37.96937 -8.95724 11377 ft 369 kts 341°
2026-05-07 17:30 37.99329 -8.96664 11184 ft 350 kts 341°
2026-05-07 17:30 38.01593 -8.97554 11029 ft 332 kts 341°
2026-05-07 17:30 38.03742 -8.98399 10930 ft 314 kts 341°
2026-05-07 17:31 38.05794 -8.99208 10828 ft 306 kts 341°
2026-05-07 17:31 38.07816 -9.00006 10531 ft 302 kts 341°
2026-05-07 17:31 38.09784 -9.00784 10097 ft 300 kts 341°
2026-05-07 17:31 38.11772 -9.01571 9725 ft 297 kts 341°
2026-05-07 17:32 38.13744 -9.02351 9372 ft 297 kts 341°
2026-05-07 17:32 38.15695 -9.03123 9071 ft 290 kts 341°
2026-05-07 17:32 38.17598 -9.03875 8775 ft 283 kts 341°
2026-05-07 17:32 38.19454 -9.04610 8502 ft 277 kts 341°
2026-05-07 17:33 38.21292 -9.05338 8241 ft 276 kts 340°
2026-05-07 17:33 38.23117 -9.06063 7987 ft 274 kts 341°
2026-05-07 17:33 38.24935 -9.06784 7723 ft 273 kts 341°
2026-05-07 17:33 38.26745 -9.07502 7463 ft 272 kts 341°
2026-05-07 17:34 38.28544 -9.08221 7263 ft 268 kts 339°
2026-05-07 17:34 38.30292 -9.09048 7029 ft 266 kts 336°
2026-05-07 17:34 38.31986 -9.09911 6772 ft 259 kts 335°
2026-05-07 17:34 38.33636 -9.10759 6514 ft 252 kts 336°
2026-05-07 17:35 38.35248 -9.11584 6266 ft 249 kts 335°
2026-05-07 17:35 38.36859 -9.12404 6016 ft 250 kts 334°
2026-05-07 17:35 38.38446 -9.13209 5760 ft 247 kts 335°
2026-05-07 17:35 38.40032 -9.14010 5501 ft 243 kts 335°
2026-05-07 17:36 38.41583 -9.14792 5239 ft 237 kts 335°
2026-05-07 17:36 38.43093 -9.15551 5013 ft 228 kts 335°
2026-05-07 17:36 38.44535 -9.16276 4758 ft 218 kts 335°
2026-05-07 17:36 38.45923 -9.16973 4506 ft 210 kts 335°
2026-05-07 17:37 38.47249 -9.17640 4254 ft 200 kts 334°
2026-05-07 17:37 38.48505 -9.18272 4048 ft 188 kts 336°
2026-05-07 17:37 38.49710 -9.18880 4021 ft 184 kts 334°
2026-05-07 17:37 38.50895 -9.19478 4019 ft 184 kts 335°
2026-05-07 17:38 38.52094 -9.20083 4022 ft 185 kts 334°
2026-05-07 17:38 38.53288 -9.20685 4014 ft 184 kts 335°
2026-05-07 17:38 38.54474 -9.21283 4012 ft 182 kts 334°
2026-05-07 17:38 38.55651 -9.21876 4000 ft 182 kts 335°
2026-05-07 17:39 38.56824 -9.22468 4024 ft 186 kts 334°
2026-05-07 17:39 38.58035 -9.23079 4014 ft 187 kts 335°
2026-05-07 17:39 38.59286 -9.23521 3961 ft 191 kts 356°
2026-05-07 17:39 38.60559 -9.22965 3809 ft 199 kts 25°
2026-05-07 17:40 38.61832 -9.22256 3526 ft 198 kts 17°
2026-05-07 17:40 38.63118 -9.21635 3250 ft 196 kts 17°
2026-05-07 17:40 38.64373 -9.20982 2972 ft 195 kts 17°
2026-05-07 17:40 38.65611 -9.20320 2728 ft 191 kts 18°
2026-05-07 17:41 38.66810 -9.19673 2454 ft 183 kts 17°
2026-05-07 17:41 38.67970 -9.19049 2239 ft 181 kts 17°
2026-05-07 17:41 38.69137 -9.18425 1959 ft 179 kts 17°
2026-05-07 17:41 38.69863 -9.18031 1833 ft 165 kts 16°
2026-05-07 17:42 38.74256 -9.15672 881 ft 157 kts 18°
2026-05-07 17:43 38.75251 -9.15138 674 ft 152 kts 19°
2026-05-07 17:43 38.76226 -9.14615 501 ft 156 kts 18°
2026-05-07 17:43 38.77212 -9.14079 348 ft 147 kts 17°
2026-05-07 17:43 38.78046 -9.13650 349 ft 110 kts 22°
2026-05-07 17:44 38.78353 -9.13387 354 ft 20 kts 53°
2026-05-07 17:44 38.78324 -9.13265 350 ft 19 kts 183°
2026-05-07 17:44 38.78214 -9.13312 349 ft 6 kts 202°
2026-05-07 17:44 38.78177 -9.13332 348 ft 6 kts 202°
2026-05-07 17:45 38.78140 -9.13351 354 ft 6 kts 202°
2026-05-07 17:45 38.78131 -9.13355 351 ft 0 kts 202°
2026-05-07 17:46 38.78122 -9.13360 348 ft 6 kts 202°
2026-05-07 17:47 38.78066 -9.13384 352 ft 10 kts 195°
2026-05-07 17:47 38.77980 -9.13400 356 ft 15 kts 179°
2026-05-07 17:47 38.77867 -9.13374 346 ft 19 kts 167°
2026-05-07 17:47 38.77724 -9.13336 346 ft 23 kts 169°
2026-05-07 17:48 38.77567 -9.13314 346 ft 22 kts 169°
2026-05-07 17:48 38.77417 -9.13276 346 ft 22 kts 168°
2026-05-07 17:48 38.77331 -9.13258 346 ft 9 kts 171°
2026-05-07 17:48 38.77288 -9.13243 346 ft 4 kts 142°
2026-05-07 17:49 38.77291 -9.13207 346 ft 5 kts 63°
2026-05-07 17:49 38.77297 -9.13175 349 ft 0 kts 78°
2026-05-07 17:49 38.77297 -9.13173 349 ft 1 kts 78°
2026-05-07 17:49 38.77298 -9.13169 348 ft 0 kts 78°